"Pseudo-MPEC" for P11EZlW

Created 2023 Jun 7 18:22:06 UT using Find_Orb

Click here for an explanation of pseudo-MPECs

 
 Astrometry: 
     P11EZlW  C2023 03 27krfFuiel1]Ar7D.4fZ*a\[vLy7^?N)7nP27oYIRTujx)D3J$qB?TF52
     P11EZlW  C2023 03 27XoZW-v5Hh^RTuG3xShswfWBS'KItY'im9P2if4W$ffSgyR@A%b\:F52
     P11EZlW  C2023 03 27;c:@ghSHXG;.3+NGRg\`T\8NWqF?T`5qUU^CcaUdwalxXye:9sP+F52
     P11EZlW  C2023 03 27G.HMV.N=rf;5'py^4Py[NW4mLMfXgdZ5lkx.?;Z_VoA'H%ox$*L6F52
     P11EZlW* C2023 05 01?bk_#M)^uO:]HVafg(G6-=4fG;@4det\i!e'=:VXxXhps.]VMcMOF51
     P11EZlW  C2023 05 01tWQnEoZ?RItqPlf`$rl4kKmVyW];`XLlLAstrometryqa`km/??9F51
     P11EZlW  C2023 05 011+y5Iq'7c\b0l;gP0(b\th.5OS]^rredacted;x*-Qs0IUGf7cv]F51
     P11EZlW KC2023 05 03.32455018 19 06.445+44 17 05.82   ~538b 22.1 GVNEOCPH01
     P11EZlW KC2023 05 03.33240718 19 05.811+44 17 12.91   ~538b 21.9 GVNEOCPH01
     P11EZlW KC2023 05 03.34056618 19 05.152+44 17 20.16   ~538b 22.1 GVNEOCPH01
     P11EZlW KC2023 05 03.34656818 19 04.651+44 17 25.35   ~538b 21.8 GVNEOCPH01
     P11EZlW KC2023 05 05.42714718 16 10.964+44 47 54.12   ~55B7 21.6 GVNEOCPH01
     P11EZlW KC2023 05 05.43159718 16 10.584+44 47 57.86   ~55B7 21.7 GVNEOCPH01
     P11EZlW KC2023 05 05.44211718 16 09.679+44 48 07.01   ~55B7 21.5 GVNEOCPH01
     P11EZlW KC2023 05 05.44855718 16 09.106+44 48 12.67   ~55B7 21.7 GVNEOCPH01
     P11EZlW  C2023 05 05%35FOLt4/Ggl__n7CUiqelLfX=P.ULhDLqJF5^06KVve%3bZYn+fF51
     P11EZlW  C2023 05 055WK;yphpth`YRv^/rI4,2HbE1+Ck-9ev=5h/,NB9$'Q*678yodG8F51
     P11EZlW KC2023 05 11V.Q\Mp2D_P2I]:kP?LRpWB-M4`i)Kju'y'=wPJ7]:=w+mp2EfiAMW62
     P11EZlW KC2023 05 11V4`__P[@)]/mgZ*nqD1H*YsX__3!V!ao:l*ZuF=+:+?xSjwl[QeQW62
     P11EZlW KC2023 05 110%6dlktm-clicki-yNAtt8YhCRgPBoiyTP03ft%WhereHLd8Y=@lW62
     P11EZlW 0C2023 05 13n9K]6$$ABjiujxKU1k)7RcADw^dQPXDo5ZMVZIJDjIE3:OJ='h^%U94
     P11EZlW 0C2023 05 13evipM!;)K*cx`w:for!F*#J*7dY;[:)??Hpb?Cc4L4igX@irBiVEU94
     P11EZlW 3C2023 05 149`6$sR_g5Y`^OHWLfkRTcuAu;0G]T#]msKk%1Y;DsyMv0SbU+8muT14
     P11EZlW 3C2023 05 14:YVqJiiu[o`n0^gcecs%N#vF)49%6-8mX.qHwF]FaQ0Ers16F)oNT14
     P11EZlW 3C2023 05 14-ktj%gopNa=-o4/G4lGuwXAI+,_,i/Zv/gZP6P%RmfG[uHIAJE(@T14
     P11EZlW 1C2023 05 30.38819217 30 56.974+49 38 33.36   ~5UA7 21.76GVNEOCPG96
     P11EZlW 1C2023 05 30.39297917 30 56.405+49 38 34.62   ~5UA7 22.19GVNEOCPG96
     P11EZlW 1C2023 05 30.39774617 30 55.818+49 38 37.57   ~5UA7 20.97GVNEOCPG96
     P11EZlW 1C2023 05 30.40251017 30 55.138+49 38 39.91   ~5UA7 22.56GVNEOCPG96
     P11EZlW 1C2023 05 30gg'so6Tl6=3Jm#rUG8W\g%,.)QLeq:SwuF14l!Q%LE)q8N0o0wO,T12
     P11EZlW 1C2023 05 30Xm2DexplanationQo!Wfl.hChnBKt:cH$YYUbO;@CN;.o10''PsiT12

Station data:
(F51) Pan-STARRS 1, Haleakala  (N20.707234 W156.255910)  US/Hawaii.
   Observers J. Bulger, T. Lowe, A. Schultz, M. Willman. Measurers K.
   Chambers, S. Chastel, T. de Boer, L. Denneau, J. Fairlamb, H. Flewelling,
   M. Huber, C.-C. Lin, E. Magnier, Y. Ramanjooloo, R. Wainscoat, R. Weryk.
   1.8-m Ritchey-Chrétien + CCD.
(F52) Pan-STARRS 2, Haleakala  (N20.707382 W156.255910)  US/Hawaii.
   Observers J. Bulger, T. Dukes, T. Lowe, A. Schultz, M. Willman. Measurers
   K. Chambers, S. Chastel, T. de Boer, L. Denneau, J. Fairlamb, H.
   Flewelling, M. Huber, C.-C. Lin, E. Magnier, Y. Ramanjooloo, R. Wainscoat,
   R. Weryk. 1.8-m Ritchey-Chrétien + CCD.
(G96) Mt. Lemmon Survey  (N32.442751 W110.788720)  US/Arizona.  Observer E.
   J. Christensen. 1.5-m reflector + 10K CCD.
(H01) Magdalena Ridge Observatory, Socorro  (N33.984833 W107.189333)  US/New
   Mexico.  Observers W. H. Ryan, E. V. Ryan. Measurer W. H. Ryan. 2.4-m
   f/8.9 reflector + CCD.
(T12) Mauna Kea-UH/Tholen NEO Follow-Up (2.24-m)  (N19.822991 W155.469434)
   US/Hawaii.  Observer R. Weryk. 2.24-m f/10.1 University of Hawaii
   reflector.
(T14) Mauna Kea-UH/Tholen NEO Follow-Up (CFHT)  (N19.825252 W155.468876)
   US/Hawaii.  Observer R. Weryk. 3.6-m Canada-France-Hawaii Telescope.
(U94) iTelescope Observatory, Beryl Junction (Sato)  (N37.737780 W113.697500)
    US/Utah.  Observer H. Sato.
(W62) Comet Hunter Observatory2, New Ringgold  (N40.745185 W75.862390)
   US/Pennsylvania.  Observer J. Maikner. 0.30-m f/3.8 Riccardi-Honders + CCD.

Orbital elements:  P11EZlW
   Perihelion 2023 Oct 13.12316 +/- 0.0267 TT =  2:57:21 (JD 2460230.62316)
Epoch 2023 May 30.0 TT = JDT 2460094.5   Sa: 0.0908              AutoNEOCP
M 358.82794257 +/- 0.0015           (J2000 ecliptic)
n   0.00861027 +/- 1.08e-5          Peri.   99.64069 +/- 0.0039
a  23.5753498 +/- 0.0196            Node   323.52288 +/- 0.00051
e   0.8076968 +/- 0.000158          Incl.  118.11429 +/- 0.00021
P 114.47                   H 14.61  G  0.15   U  5.1
q 4.53361402 +/- 7.99e-5    Q 42.6170855 +/- 0.0392
From 31 observations 2023 Mar. 27-May 30; mean residual 0".26
Residuals in arcseconds: 
230327 F52  .21-  .01-    230505 H01  .02-  .13+    230514 T14  .05-  .01+    
230327 F52  .05+  .00     230505 H01  .03+  .00     230514 T14  .07-  .05+    
230327 F52  .11-  .27+    230505 H01  .09+  .00     230514 T14  .04-  .00     
230327 F52  .22+  .17-    230505 H01  .08-  .06+    230530 G96  .64-  .67+    
230501 F51  .02-  .15+    230505 F51  .37+  .25+    230530 G96  .14-  .34-    
230501 F51  .11+  .12-    230505 F51  .05-  .54-    230530 G96  .16+  .35+    
230501 F51  .17+  .23-    230511 W62  .26-  .33+    230530 G96  .45-  .44+    
230503 H01  .09-  .05+    230511 W62  .23-  .23-    230530 T12  .01-  .01-    
230503 H01  .02+  .12+    230511 W62  .30-  .27-    230530 T12  .09+  .04-    
230503 H01  .14+  .09+    230513 U94  .05-  .77+    
230503 H01  .06+  .08-    230513 U94  .40-  .72+    

Ephemerides (geocentric):
Date (UTC) HH   RA             Dec           delta  r     elong  mag " sig PA
---- --------  ------------   ------------  ------ ------ -----  --- --------
2023 06 07 18  17 12 29.157   +50 32 05.37  4.2321 4.6266 106.7 21.8 .091  15
2023 06 07 19  17 12 23.508   +50 32 17.42  4.2321 4.6266 106.7 21.8 .091  15
2023 06 07 20  17 12 17.859   +50 32 29.43  4.2321 4.6265 106.7 21.8 .091  15
2023 06 07 21  17 12 12.209   +50 32 41.40  4.2322 4.6264 106.7 21.8 .092  15
2023 06 07 22  17 12 06.557   +50 32 53.34  4.2322 4.6264 106.7 21.8 .092  15
2023 06 07 23  17 12 00.905   +50 33 05.23  4.2322 4.6263 106.7 21.8 .092  15
2023 06 08 00  17 11 55.253   +50 33 17.08  4.2322 4.6263 106.6 21.8 .093  15
2023 06 08 01  17 11 49.599   +50 33 28.89  4.2323 4.6262 106.6 21.8 .093  15
2023 06 08 02  17 11 43.944   +50 33 40.66  4.2323 4.6261 106.6 21.8 .093  15
2023 06 08 03  17 11 38.289   +50 33 52.40  4.2323 4.6261 106.6 21.8 .093  15
2023 06 08 04  17 11 32.633   +50 34 04.09  4.2323 4.6260 106.6 21.8 .094  15
2023 06 08 05  17 11 26.976   +50 34 15.74  4.2324 4.6260 106.6 21.8 .094  15
2023 06 08 06  17 11 21.318   +50 34 27.35  4.2324 4.6259 106.6 21.8 .094  15
2023 06 08 07  17 11 15.660   +50 34 38.92  4.2324 4.6258 106.6 21.8 .095  15
2023 06 08 08  17 11 10.000   +50 34 50.45  4.2324 4.6258 106.6 21.8 .095  15
2023 06 08 09  17 11 04.340   +50 35 01.94  4.2325 4.6257 106.6 21.8 .095  15
2023 06 08 10  17 10 58.679   +50 35 13.39  4.2325 4.6257 106.6 21.8 .096  15
2023 06 08 11  17 10 53.017   +50 35 24.80  4.2325 4.6256 106.6 21.8 .096  15
2023 06 08 12  17 10 47.355   +50 35 36.17  4.2325 4.6255 106.6 21.8 .096  14
2023 06 08 13  17 10 41.692   +50 35 47.50  4.2326 4.6255 106.6 21.8 .096  14
2023 06 08 14  17 10 36.028   +50 35 58.79  4.2326 4.6254 106.6 21.8 .097  14
2023 06 08 15  17 10 30.363   +50 36 10.03  4.2326 4.6254 106.6 21.8 .097  14
2023 06 08 16  17 10 24.697   +50 36 21.24  4.2327 4.6253 106.6 21.8 .097  14
2023 06 08 17  17 10 19.031   +50 36 32.41  4.2327 4.6253 106.5 21.8 .098  14
2023 06 08 18  17 10 13.364   +50 36 43.54  4.2327 4.6252 106.5 21.8 .098  14
2023 06 08 19  17 10 07.696   +50 36 54.63  4.2327 4.6251 106.5 21.8 .098  14
2023 06 08 20  17 10 02.028   +50 37 05.67  4.2328 4.6251 106.5 21.8 .099  14
2023 06 08 21  17 09 56.359   +50 37 16.68  4.2328 4.6250 106.5 21.8 .099  14
2023 06 08 22  17 09 50.689   +50 37 27.65  4.2328 4.6250 106.5 21.8 .099  14
2023 06 08 23  17 09 45.018   +50 37 38.57  4.2329 4.6249 106.5 21.8 .099  14
2023 06 09 00  17 09 39.347   +50 37 49.46  4.2329 4.6248 106.5 21.8 .100  14
2023 06 09 01  17 09 33.675   +50 38 00.30  4.2329 4.6248 106.5 21.8 .100  14
2023 06 09 02  17 09 28.002   +50 38 11.11  4.2330 4.6247 106.5 21.8 .100  14
2023 06 09 03  17 09 22.329   +50 38 21.87  4.2330 4.6247 106.5 21.8 .101  14
2023 06 09 04  17 09 16.655   +50 38 32.60  4.2330 4.6246 106.5 21.8 .101  14
2023 06 09 05  17 09 10.981   +50 38 43.28  4.2331 4.6245 106.5 21.8 .101  14
2023 06 09 06  17 09 05.305   +50 38 53.92  4.2331 4.6245 106.5 21.8 .102  14
2023 06 09 07  17 08 59.629   +50 39 04.53  4.2332 4.6244 106.5 21.8 .102  14
2023 06 09 08  17 08 53.953   +50 39 15.09  4.2332 4.6244 106.5 21.8 .102  14
2023 06 09 09  17 08 48.276   +50 39 25.61  4.2332 4.6243 106.5 21.8 .102  14
2023 06 09 10  17 08 42.598   +50 39 36.09  4.2333 4.6242 106.4 21.8 .103  13
2023 06 09 11  17 08 36.919   +50 39 46.53  4.2333 4.6242 106.4 21.8 .103  13
2023 06 09 12  17 08 31.240   +50 39 56.94  4.2333 4.6241 106.4 21.8 .103  13
2023 06 09 13  17 08 25.560   +50 40 07.30  4.2334 4.6241 106.4 21.8 .104  13
2023 06 09 14  17 08 19.880   +50 40 17.62  4.2334 4.6240 106.4 21.8 .104  13
2023 06 09 15  17 08 14.199   +50 40 27.90  4.2335 4.6239 106.4 21.8 .104  13
2023 06 09 16  17 08 08.518   +50 40 38.13  4.2335 4.6239 106.4 21.8 .105  13
2023 06 09 17  17 08 02.836   +50 40 48.33  4.2335 4.6238 106.4 21.8 .105  13